Terug naar catalogus

BREEZE-KM DEB

ActiefPO
NORAD 41722·DEBRIS·🇷🇺 Russia

Gelanceerd Mar 31, 2015 vanaf Plesetsk Cosmodrome

Loading…

Volgende Passages (komende 24 uur)

TLE

VersSource: Space-Track

Epoch: Sep 13, 2026, 02:21 UTC

1 41722U 15020K   26256.09846466  .00000035  00000-0  11326-3 0  9992
2 41722  82.4923 199.1663 0180063   9.9403 350.5177 12.70541266502968

Volg BREEZE-KM DEB in realtime met AllMySat

Download on the App Store